| time (UTC) | temp F | wind direction | speed knots | gust knots | rain 1hr in | rain 24hr in | rain mn in | humidity % | barometer mb |
| 20260504044539 | 53 | 16 | 9.6 | 15.6 | 0.00 | 0.00 | 0.00 | 39 | 1010.9 |
| 20260504043042 | 54 | 20 | 13.9 | 18.2 | 0.00 | 0.00 | 0.00 | 38 | 1010.6 |
| 20260504041542 | 55 | 5 | 11.3 | 17.4 | 0.00 | 0.00 | 0.00 | 40 | 1009.9 |
| 20260504040056 | 54 | 12 | 4.3 | 9.6 | 0.00 | 0.00 | 0.00 | 44 | 1009.2 |
| 20260504034544 | 54 | 355 | 1.7 | 4.3 | 0.00 | 0.00 | 0.00 | 42 | 1008.7 |
| 20260504033042 | 56 | 355 | 1.7 | 4.3 | 0.00 | 0.00 | 0.00 | 40 | 1008.3 |
| 20260504031553 | 57 | 12 | 4.3 | 9.6 | 0.00 | 0.00 | 0.00 | 38 | 1008.0 |
| 20260504030043 | 58 | 5 | 7.0 | 12.2 | 0.00 | 0.00 | 0.00 | 37 | 1007.8 |
| 20260504024536 | 59 | 26 | 8.7 | 13.9 | 0.00 | 0.00 | 0.00 | 36 | 1007.6 |
| 20260504023043 | 61 | 360 | 9.6 | 16.5 | 0.00 | 0.00 | 0.00 | 33 | 1007.5 |
| 20260504021540 | 62 | 5 | 11.3 | 18.2 | 0.00 | 0.00 | 0.00 | 32 | 1007.6 |
| 20260504020043 | 65 | 9 | 8.7 | 14.8 | 0.00 | 0.00 | 0.00 | 29 | 1007.5 |
| 20260504014542 | 66 | 5 | 8.7 | 14.8 | 0.00 | 0.00 | 0.00 | 26 | 1007.3 |
| 20260504013041 | 68 | 5 | 9.6 | 15.6 | 0.00 | 0.00 | 0.00 | 23 | 1007.3 |
| 20260504011543 | 71 | 331 | 7.0 | 22.6 | 0.00 | 0.00 | 0.00 | 22 | 1007.2 |
| 20260504010048 | 71 | 306 | 6.1 | 14.8 | 0.00 | 0.00 | 0.00 | 21 | 1007.2 |
| 20260504004541 | 72 | 304 | 4.3 | 14.8 | 0.00 | 0.00 | 0.00 | 20 | 1007.2 |
| 20260504003040 | 71 | 275 | 8.7 | 14.8 | 0.00 | 0.00 | 0.00 | 19 | 1007.3 |
| 20260504001543 | 72 | 309 | 7.8 | 17.4 | 0.00 | 0.00 | 0.00 | 19 | 1007.5 |
| 20260504000036 | 72 | 350 | 8.7 | 16.5 | 0.00 | 0.00 | 0.00 | 20 | 1007.6 |
| 20260503234558 | 72 | 352 | 6.1 | 13.9 | 0.00 | 0.00 | 0.00 | 21 | 1007.7 |
| 20260503233047 | 73 | 302 | 8.7 | 16.5 | 0.00 | 0.00 | 0.00 | 19 | 1007.6 |
| 20260503231541 | 73 | 296 | 9.6 | 20.0 | 0.00 | 0.00 | 0.00 | 19 | 1007.7 |
| 20260503230042 | 72 | 326 | 10.4 | 16.5 | 0.00 | 0.00 | 0.00 | 19 | 1007.8 |
| 20260503224536 | 72 | 341 | 7.8 | 18.2 | 0.00 | 0.00 | 0.00 | 20 | 1008.0 |
| 20260503223036 | 73 | 307 | 7.0 | 16.5 | 0.00 | 0.00 | 0.00 | 20 | 1008.0 |
| 20260503221555 | 72 | 329 | 8.7 | 15.6 | 0.00 | 0.00 | 0.00 | 19 | 1008.2 |
| 20260503220046 | 73 | 340 | 7.8 | 15.6 | 0.00 | 0.00 | 0.00 | 19 | 1008.6 |
| 20260503214541 | 72 | 324 | 8.7 | 15.6 | 0.00 | 0.00 | 0.00 | 20 | 1008.7 |
| 20260503213043 | 71 | 302 | 8.7 | 14.8 | 0.00 | 0.00 | 0.00 | 20 | 1008.8 |
| 20260503211540 | 72 | 350 | 10.4 | 17.4 | 0.00 | 0.00 | 0.00 | 20 | 1008.9 |
| 20260503210039 | 72 | 305 | 7.0 | 15.6 | 0.00 | 0.00 | 0.00 | 20 | 1009.1 |
| 20260503204536 | 72 | 312 | 7.0 | 16.5 | 0.00 | 0.00 | 0.00 | 21 | 1009.4 |
| 20260503203053 | 71 | 269 | 8.7 | 20.0 | 0.00 | 0.00 | 0.00 | 20 | 1009.5 |
| 20260503201549 | 70 | 299 | 11.3 | 16.5 | 0.00 | 0.00 | 0.00 | 21 | 1009.7 |
| 20260503200055 | 70 | 235 | 4.3 | 16.5 | 0.00 | 0.00 | 0.00 | 22 | 1009.8 |
| 20260503194543 | 70 | 332 | 7.8 | 15.6 | 0.00 | 0.00 | 0.00 | 22 | 1010.2 |
| 20260503193043 | 69 | 309 | 7.8 | 13.9 | 0.00 | 0.00 | 0.00 | 22 | 1010.4 |
| 20260503191537 | 69 | 325 | 7.8 | 14.8 | 0.00 | 0.00 | 0.00 | 23 | 1010.6 |
| 20260503190035 | 68 | 285 | 7.0 | 25.2 | 0.00 | 0.00 | 0.00 | 26 | 1010.8 |
| 20260503184541 | 68 | 290 | 8.7 | 16.5 | 0.00 | 0.00 | 0.00 | 25 | 1010.9 |
| 20260503183041 | 68 | 255 | 7.0 | 16.5 | 0.00 | 0.00 | 0.00 | 25 | 1011.0 |
| 20260503181542 | 68 | 292 | 5.2 | 11.3 | 0.00 | 0.00 | 0.00 | 24 | 1011.2 |
| 20260503180050 | 68 | 309 | 7.0 | 12.2 | 0.00 | 0.00 | 0.00 | 23 | 1011.4 |
| 20260503174542 | 67 | 211 | 6.1 | 13.0 | 0.00 | 0.00 | 0.00 | 24 | 1011.7 |
| 20260503173042 | 68 | 321 | 7.0 | 13.9 | 0.00 | 0.00 | 0.00 | 23 | 1011.9 |
| 20260503171547 | 67 | 321 | 7.0 | 13.9 | 0.00 | 0.00 | 0.00 | 25 | 1011.9 |
| 20260503081537 | 45 | 224 | 6.1 | 8.7 | 0.00 | 0.00 | 0.00 | 68 | 1014.5 |